| time (UTC) | temp F | wind direction | speed MPH | gust MPH | rain 1hr in | rain 24hr in | rain mn in | humidity % | barometer mb |
| 20260904144053 | 69 | 84 | 10.0 | 14.0 | 0.00 | 0.00 | 0.00 | 82 | 995.9 |
| 20260904143552 | 69 | 82 | 10.0 | 14.0 | 0.00 | 0.00 | 0.00 | 83 | 996.0 |
| 20260904143114 | 68 | 90 | 10.0 | 14.0 | 0.00 | 0.00 | 0.00 | 84 | 996.0 |
| 20260904142552 | 68 | 360 | 10.0 | 14.0 | 0.00 | 0.00 | 0.00 | 85 | 995.9 |
| 20260904142052 | 67 | 92 | 10.0 | 13.0 | 0.00 | 0.00 | 0.00 | 85 | 996.1 |
| 20260904141654 | 67 | 83 | 8.0 | 11.0 | 0.00 | 0.00 | 0.00 | 86 | 996.0 |
| 20260904141051 | 67 | 76 | 7.0 | 11.0 | 0.00 | 0.00 | 0.00 | 87 | 996.1 |
| 20260904140554 | 66 | 78 | 8.0 | 11.0 | 0.00 | 0.00 | 0.00 | 87 | 996.0 |
| 20260904140053 | 66 | 82 | 7.0 | 12.0 | 0.00 | 0.00 | 0.00 | 88 | 996.0 |
| 20260904135551 | 65 | 360 | 8.0 | 10.0 | 0.00 | 0.00 | 0.00 | 89 | 996.1 |
| 20260904135051 | 65 | 360 | 5.0 | 9.0 | 0.00 | 0.00 | 0.00 | 90 | 996.1 |
| 20260904134555 | 65 | 360 | 5.0 | 9.0 | 0.00 | 0.00 | 0.00 | 90 | 996.1 |
| 20260904134050 | 64 | 37 | 5.0 | 8.0 | 0.00 | 0.00 | 0.00 | 90 | 995.9 |
| 20260904133550 | 64 | 77 | 4.0 | 7.0 | 0.00 | 0.00 | 0.00 | 91 | 996.1 |
| 20260904133103 | 64 | 360 | 2.0 | 6.0 | 0.00 | 0.00 | 0.00 | 91 | 996.1 |
| 20260904132550 | 64 | 360 | 2.0 | 6.0 | 0.00 | 0.00 | 0.00 | 91 | 996.2 |
| 20260904132050 | 63 | 76 | 1.0 | 6.0 | 0.00 | 0.00 | 0.00 | 91 | 996.1 |
| 20260904131052 | 63 | 360 | 3.0 | 6.0 | 0.00 | 0.00 | 0.00 | 92 | 996.2 |
| 20260904130549 | 63 | 360 | 4.0 | 9.0 | 0.00 | 0.00 | 0.00 | 92 | 996.1 |
| 20260904130055 | 62 | 360 | 5.0 | 9.0 | 0.00 | 0.00 | 0.00 | 93 | 996.0 |
| 20260904125548 | 62 | 360 | 2.0 | 6.0 | 0.00 | 0.00 | 0.00 | 93 | 996.0 |
| 20260904125054 | 61 | 360 | 3.0 | 7.0 | 0.00 | 0.00 | 0.00 | 93 | 996.0 |
| 20260904124550 | 61 | 360 | 4.0 | 8.0 | 0.00 | 0.00 | 0.00 | 93 | 995.7 |
| 20260904124047 | 61 | 360 | 5.0 | 8.0 | 0.00 | 0.00 | 0.00 | 92 | 995.8 |
| 20260904123547 | 61 | 360 | 5.0 | 7.0 | 0.00 | 0.00 | 0.00 | 92 | 995.8 |
| 20260904123051 | 61 | 360 | 4.0 | 7.0 | 0.00 | 0.00 | 0.00 | 93 | 995.8 |
| 20260904122548 | 61 | 360 | 3.0 | 7.0 | 0.00 | 0.00 | 0.00 | 93 | 995.8 |
| 20260904122047 | 61 | 360 | 4.0 | 8.0 | 0.00 | 0.00 | 0.00 | 93 | 995.9 |
| 20260904121648 | 61 | 360 | 4.0 | 7.0 | 0.00 | 0.00 | 0.00 | 93 | 995.9 |
| 20260904121048 | 61 | 360 | 3.0 | 6.0 | 0.00 | 0.00 | 0.00 | 93 | 996.0 |
| 20260904120547 | 60 | 360 | 3.0 | 7.0 | 0.00 | 0.00 | 0.00 | 93 | 995.9 |
| 20260904120058 | 60 | 360 | 4.0 | 7.0 | 0.00 | 0.00 | 0.00 | 93 | 995.8 |
| 20260904115547 | 60 | 360 | 4.0 | 6.0 | 0.00 | 0.00 | 0.00 | 92 | 995.8 |
| 20260904115049 | 60 | 360 | 5.0 | 6.0 | 0.00 | 0.00 | 0.00 | 92 | 995.8 |
| 20260904114549 | 60 | 360 | 4.0 | 7.0 | 0.00 | 0.00 | 0.00 | 91 | 995.9 |
| 20260904114045 | 60 | 360 | 5.0 | 7.0 | 0.00 | 0.00 | 0.00 | 91 | 995.8 |
| 20260904113545 | 60 | 360 | 4.0 | 7.0 | 0.00 | 0.00 | 0.00 | 91 | 995.8 |
| 20260904113044 | 61 | 360 | 5.0 | 6.0 | 0.00 | 0.00 | 0.00 | 90 | 995.8 |
| 20260904112542 | 61 | 360 | 4.0 | 5.0 | 0.00 | 0.00 | 0.00 | 88 | 995.8 |
| 20260904112042 | 62 | 360 | 1.0 | 3.0 | 0.00 | 0.00 | 0.00 | 90 | 995.8 |
| 20260904111041 | 62 | 360 | 0.0 | 0.0 | 0.00 | 0.00 | 0.00 | 91 | 995.7 |
| 20260904110541 | 62 | 360 | 0.0 | 4.0 | 0.00 | 0.00 | 0.00 | 91 | 995.7 |
| 20260904110043 | 62 | 360 | 0.0 | 5.0 | 0.00 | 0.00 | 0.00 | 91 | 995.7 |
| 20260904105542 | 62 | 360 | 1.0 | 5.0 | 0.00 | 0.00 | 0.00 | 91 | 995.8 |
| 20260904105042 | 62 | 360 | 2.0 | 5.0 | 0.00 | 0.00 | 0.00 | 91 | 996.0 |
| 20260904104541 | 62 | 360 | 0.0 | 0.0 | 0.00 | 0.00 | 0.00 | 91 | 995.9 |
| 20260904104041 | 62 | 360 | 0.0 | 0.0 | 0.00 | 0.00 | 0.00 | 91 | 995.9 |
| 20260904103543 | 62 | 360 | 0.0 | 1.0 | 0.00 | 0.00 | 0.00 | 91 | 996.0 |
| 20260904103044 | 62 | 360 | 0.0 | 2.0 | 0.00 | 0.00 | 0.00 | 91 | 995.9 |
| 20260904102541 | 62 | 360 | 0.0 | 4.0 | 0.00 | 0.00 | 0.00 | 91 | 996.0 |
| 20260904102040 | 61 | 360 | 1.0 | 4.0 | 0.00 | 0.00 | 0.00 | 91 | 996.1 |
| 20260904101642 | 61 | 360 | 1.0 | 3.0 | 0.00 | 0.00 | 0.00 | 90 | 996.0 |
| 20260904101045 | 61 | 360 | 1.0 | 4.0 | 0.00 | 0.00 | 0.00 | 90 | 996.0 |
| 20260904100545 | 62 | 360 | 1.0 | 4.0 | 0.00 | 0.00 | 0.00 | 90 | 995.9 |
| 20260904100042 | 62 | 360 | 2.0 | 5.0 | 0.00 | 0.00 | 0.00 | 90 | 995.9 |
| 20260904095542 | 62 | 360 | 3.0 | 5.0 | 0.00 | 0.00 | 0.00 | 91 | 996.1 |
| 20260904095042 | 61 | 360 | 1.0 | 6.0 | 0.00 | 0.00 | 0.00 | 90 | 995.9 |
| 20260904094541 | 62 | 360 | 2.0 | 6.0 | 0.00 | 0.00 | 0.00 | 90 | 995.9 |
| 20260904094040 | 62 | 360 | 4.0 | 6.0 | 0.00 | 0.00 | 0.00 | 90 | 996.0 |
| 20260904093540 | 62 | 360 | 4.0 | 6.0 | 0.00 | 0.00 | 0.00 | 89 | 996.0 |
| 20260904093040 | 62 | 360 | 5.0 | 7.0 | 0.00 | 0.00 | 0.00 | 89 | 995.8 |
| 20260904092539 | 62 | 360 | 4.0 | 8.0 | 0.00 | 0.00 | 0.00 | 89 | 995.8 |
| 20260904092039 | 62 | 360 | 5.0 | 8.0 | 0.00 | 0.00 | 0.00 | 89 | 995.9 |
| 20260904091038 | 62 | 360 | 5.0 | 7.0 | 0.00 | 0.00 | 0.00 | 89 | 995.9 |
| 20260904090538 | 62 | 360 | 5.0 | 6.0 | 0.00 | 0.00 | 0.00 | 89 | 995.8 |
| 20260904090038 | 62 | 360 | 3.0 | 7.0 | 0.00 | 0.00 | 0.00 | 89 | 995.8 |
| 20260904085538 | 62 | 360 | 4.0 | 7.0 | 0.00 | 0.00 | 0.00 | 89 | 995.8 |
| 20260904085037 | 62 | 360 | 5.0 | 7.0 | 0.00 | 0.00 | 0.00 | 88 | 995.8 |
| 20260904084541 | 62 | 360 | 5.0 | 7.0 | 0.00 | 0.00 | 0.00 | 87 | 995.8 |
| 20260904084038 | 62 | 360 | 4.0 | 7.0 | 0.00 | 0.00 | 0.00 | 87 | 995.8 |
| 20260904083541 | 62 | 360 | 4.0 | 7.0 | 0.00 | 0.00 | 0.00 | 87 | 995.8 |
| 20260904083034 | 63 | 360 | 5.0 | 7.0 | 0.00 | 0.00 | 0.00 | 87 | 995.8 |
| 20260904082534 | 63 | 360 | 4.0 | 7.0 | 0.00 | 0.00 | 0.00 | 86 | 995.9 |
| 20260904082032 | 63 | 360 | 5.0 | 8.0 | 0.00 | 0.00 | 0.00 | 86 | 995.7 |
| 20260904081635 | 63 | 360 | 5.0 | 9.0 | 0.00 | 0.00 | 0.00 | 86 | 995.7 |
| 20260904081035 | 63 | 360 | 6.0 | 9.0 | 0.00 | 0.00 | 0.00 | 86 | 995.5 |
| 20260904080530 | 63 | 360 | 6.0 | 9.0 | 0.00 | 0.00 | 0.00 | 85 | 995.6 |
| 20260904080041 | 63 | 360 | 6.0 | 8.0 | 0.00 | 0.00 | 0.00 | 85 | 995.6 |
| 20260904075529 | 64 | 360 | 5.0 | 8.0 | 0.00 | 0.00 | 0.00 | 84 | 995.7 |
| 20260904075030 | 64 | 360 | 5.0 | 7.0 | 0.00 | 0.00 | 0.00 | 83 | 995.9 |
| 20260904074527 | 64 | 360 | 4.0 | 7.0 | 0.00 | 0.00 | 0.00 | 83 | 996.0 |
| 20260904074026 | 64 | 360 | 4.0 | 7.0 | 0.00 | 0.00 | 0.00 | 83 | 995.8 |
| 20260904073530 | 64 | 360 | 4.0 | 7.0 | 0.00 | 0.00 | 0.00 | 83 | 995.8 |
| 20260904073026 | 65 | 360 | 5.0 | 7.0 | 0.00 | 0.00 | 0.00 | 83 | 995.9 |
| 20260904072525 | 65 | 360 | 5.0 | 7.0 | 0.00 | 0.00 | 0.00 | 82 | 995.8 |
| 20260904072025 | 65 | 360 | 5.0 | 7.0 | 0.00 | 0.00 | 0.00 | 81 | 995.7 |
| 20260904071026 | 65 | 360 | 5.0 | 7.0 | 0.00 | 0.00 | 0.00 | 81 | 995.7 |
| 20260904070528 | 65 | 360 | 4.0 | 7.0 | 0.00 | 0.00 | 0.00 | 82 | 995.6 |
| 20260904070033 | 65 | 360 | 6.0 | 7.0 | 0.00 | 0.00 | 0.00 | 82 | 995.5 |
| 20260904065523 | 65 | 360 | 5.0 | 7.0 | 0.00 | 0.00 | 0.00 | 82 | 995.5 |
| 20260904065023 | 64 | 360 | 5.0 | 7.0 | 0.00 | 0.00 | 0.00 | 82 | 995.5 |
| 20260904064522 | 65 | 360 | 5.0 | 7.0 | 0.00 | 0.00 | 0.00 | 80 | 995.5 |
| 20260904064020 | 65 | 360 | 5.0 | 7.0 | 0.00 | 0.00 | 0.00 | 80 | 995.4 |
| 20260904063520 | 65 | 360 | 5.0 | 6.0 | 0.00 | 0.00 | 0.00 | 80 | 995.5 |
| 20260904063020 | 65 | 360 | 4.0 | 6.0 | 0.00 | 0.00 | 0.00 | 80 | 995.5 |
| 20260904062519 | 66 | 360 | 4.0 | 6.0 | 0.00 | 0.00 | 0.00 | 79 | 995.4 |
| 20260904062019 | 66 | 360 | 5.0 | 7.0 | 0.00 | 0.00 | 0.00 | 78 | 995.3 |
| 20260904061020 | 66 | 360 | 5.0 | 7.0 | 0.00 | 0.00 | 0.00 | 78 | 995.4 |
| 20260904060519 | 66 | 360 | 4.0 | 6.0 | 0.00 | 0.00 | 0.00 | 78 | 995.4 |
| 20260904060018 | 66 | 360 | 5.0 | 7.0 | 0.00 | 0.00 | 0.00 | 79 | 995.2 |
| 20260904055517 | 65 | 360 | 6.0 | 7.0 | 0.00 | 0.00 | 0.00 | 78 | 995.3 |
| 20260904055017 | 65 | 360 | 5.0 | 7.0 | 0.00 | 0.00 | 0.00 | 77 | 995.3 |
| 20260904054529 | 65 | 360 | 6.0 | 7.0 | 0.00 | 0.00 | 0.00 | 77 | 995.3 |
| 20260904054016 | 65 | 360 | 5.0 | 6.0 | 0.00 | 0.00 | 0.00 | 76 | 995.3 |
| 20260904053515 | 65 | 360 | 4.0 | 7.0 | 0.00 | 0.00 | 0.00 | 75 | 995.1 |
| 20260904053019 | 66 | 360 | 6.0 | 7.0 | 0.00 | 0.00 | 0.00 | 75 | 995.1 |
| 20260904052513 | 66 | 360 | 5.0 | 7.0 | 0.00 | 0.00 | 0.00 | 73 | 995.2 |
| 20260904052015 | 66 | 360 | 5.0 | 7.0 | 0.00 | 0.00 | 0.00 | 73 | 995.1 |
| 20260904051016 | 66 | 360 | 5.0 | 7.0 | 0.00 | 0.00 | 0.00 | 72 | 995.2 |
| 20260904050515 | 66 | 360 | 5.0 | 7.0 | 0.00 | 0.00 | 0.00 | 72 | 995.1 |
| 20260904050012 | 66 | 360 | 5.0 | 7.0 | 0.00 | 0.00 | 0.00 | 69 | 995.0 |
| 20260904045512 | 67 | 360 | 6.0 | 8.0 | 0.00 | 0.00 | 0.00 | 67 | 995.0 |
| 20260904045012 | 67 | 360 | 6.0 | 9.0 | 0.00 | 0.00 | 0.00 | 66 | 995.1 |
| 20260904044513 | 67 | 360 | 6.0 | 9.0 | 0.00 | 0.00 | 0.00 | 66 | 995.0 |
| 20260904044010 | 66 | 360 | 7.0 | 9.0 | 0.00 | 0.00 | 0.00 | 65 | 995.0 |
| 20260904043511 | 66 | 360 | 6.0 | 8.0 | 0.00 | 0.00 | 0.00 | 61 | 994.8 |
| 20260904043009 | 66 | 360 | 6.0 | 7.0 | 0.00 | 0.00 | 0.00 | 59 | 995.0 |
| 20260904042508 | 66 | 360 | 4.0 | 6.0 | 0.00 | 0.00 | 0.00 | 57 | 995.0 |
| 20260904042007 | 66 | 360 | 5.0 | 8.0 | 0.00 | 0.00 | 0.00 | 56 | 995.0 |
| 20260904041007 | 67 | 360 | 7.0 | 10.0 | 0.00 | 0.00 | 0.00 | 55 | 994.2 |
| 20260904040506 | 67 | 360 | 8.0 | 10.0 | 0.00 | 0.00 | 0.00 | 54 | 994.3 |
| 20260904040004 | 67 | 360 | 8.0 | 10.0 | 0.00 | 0.00 | 0.00 | 54 | 994.4 |
| 20260904035505 | 67 | 360 | 7.0 | 10.0 | 0.00 | 0.00 | 0.00 | 55 | 994.4 |
| 20260904035006 | 67 | 360 | 8.0 | 10.0 | 0.00 | 0.00 | 0.00 | 56 | 994.5 |
| 20260904034504 | 67 | 360 | 8.0 | 10.0 | 0.00 | 0.00 | 0.00 | 58 | 994.5 |
| 20260904034003 | 66 | 360 | 7.0 | 9.0 | 0.00 | 0.00 | 0.00 | 60 | 994.7 |
| 20260904033502 | 67 | 360 | 7.0 | 8.0 | 0.00 | 0.00 | 0.00 | 61 | 994.7 |
| 20260904033001 | 68 | 360 | 7.0 | 8.0 | 0.00 | 0.00 | 0.00 | 59 | 994.7 |
| 20260904032600 | 69 | 360 | 6.0 | 8.0 | 0.00 | 0.00 | 0.00 | 58 | 994.7 |
| 20260904032001 | 69 | 360 | 6.0 | 8.0 | 0.00 | 0.00 | 0.00 | 60 | 994.7 |
| 20260904031100 | 68 | 360 | 6.0 | 8.0 | 0.00 | 0.00 | 0.00 | 62 | 994.6 |
| 20260904030604 | 68 | 360 | 6.0 | 8.0 | 0.00 | 0.00 | 0.00 | 62 | 994.5 |
| 20260904025559 | 69 | 360 | 6.0 | 9.0 | 0.00 | 0.00 | 0.00 | 63 | 994.7 |
| 20260904025058 | 69 | 360 | 6.0 | 9.0 | 0.00 | 0.00 | 0.00 | 62 | 994.5 |
| 20260904024559 | 70 | 360 | 8.0 | 9.0 | 0.00 | 0.00 | 0.00 | 61 | 994.6 |
| 20260904024055 | 70 | 360 | 6.0 | 7.0 | 0.00 | 0.00 | 0.00 | 61 | 994.4 |
| 20260904023554 | 71 | 360 | 6.0 | 8.0 | 0.00 | 0.00 | 0.00 | 61 | 994.4 |
| 20260904023054 | 71 | 360 | 6.0 | 8.0 | 0.00 | 0.00 | 0.00 | 60 | 994.4 |
| 20260904022553 | 71 | 360 | 6.0 | 8.0 | 0.00 | 0.00 | 0.00 | 60 | 994.4 |
| 20260904022052 | 71 | 360 | 7.0 | 9.0 | 0.00 | 0.00 | 0.00 | 59 | 994.3 |
| 20260904021651 | 73 | 360 | 7.0 | 8.0 | 0.00 | 0.00 | 0.00 | 56 | 994.3 |
| 20260904021051 | 73 | 360 | 7.0 | 8.0 | 0.00 | 0.00 | 0.00 | 57 | 994.2 |
| 20260904020551 | 73 | 360 | 6.0 | 7.0 | 0.00 | 0.00 | 0.00 | 56 | 994.1 |
| 20260904020050 | 73 | 360 | 5.0 | 7.0 | 0.00 | 0.00 | 0.00 | 56 | 994.1 |
| 20260904015549 | 73 | 336 | 5.0 | 8.0 | 0.00 | 0.00 | 0.00 | 55 | 994.0 |
| 20260904015052 | 73 | 360 | 6.0 | 8.0 | 0.00 | 0.00 | 0.00 | 55 | 994.0 |
| 20260904014553 | 74 | 360 | 6.0 | 7.0 | 0.00 | 0.00 | 0.00 | 53 | 993.9 |
| 20260904014045 | 75 | 360 | 6.0 | 7.0 | 0.00 | 0.00 | 0.00 | 51 | 993.8 |
| 20260904013544 | 76 | 360 | 5.0 | 7.0 | 0.00 | 0.00 | 0.00 | 50 | 993.6 |
| 20260904013058 | 76 | 360 | 5.0 | 6.0 | 0.00 | 0.00 | 0.00 | 50 | 993.6 |
| 20260904012541 | 77 | 360 | 5.0 | 7.0 | 0.00 | 0.00 | 0.00 | 49 | 993.5 |
| 20260904012041 | 77 | 351 | 5.0 | 7.0 | 0.00 | 0.00 | 0.00 | 47 | 993.4 |
| 20260904011653 | 78 | 13 | 6.0 | 8.0 | 0.00 | 0.00 | 0.00 | 46 | 993.4 |
| 20260904011040 | 79 | 360 | 6.0 | 8.0 | 0.00 | 0.00 | 0.00 | 46 | 993.4 |
| 20260904010538 | 79 | 360 | 6.0 | 8.0 | 0.00 | 0.00 | 0.00 | 44 | 993.3 |
| 20260904010037 | 80 | 24 | 5.0 | 7.0 | 0.00 | 0.00 | 0.00 | 43 | 993.2 |
| 20260904005539 | 81 | 32 | 5.0 | 8.0 | 0.00 | 0.00 | 0.00 | 42 | 993.3 |
| 20260904005033 | 81 | 360 | 6.0 | 8.0 | 0.00 | 0.00 | 0.00 | 41 | 993.2 |
| 20260904004532 | 82 | 360 | 5.0 | 9.0 | 0.00 | 0.00 | 0.00 | 40 | 993.2 |
| 20260904004033 | 83 | 19 | 6.0 | 9.0 | 0.00 | 0.00 | 0.00 | 39 | 993.1 |
| 20260904003534 | 84 | 15 | 7.0 | 9.0 | 0.00 | 0.00 | 0.00 | 36 | 993.1 |
| 20260904003034 | 84 | 360 | 5.0 | 9.0 | 0.00 | 0.00 | 0.00 | 30 | 993.1 |
| 20260904002530 | 84 | 360 | 5.0 | 9.0 | 0.00 | 0.00 | 0.00 | 30 | 993.1 |
| 20260904002030 | 85 | 360 | 5.0 | 10.0 | 0.00 | 0.00 | 0.00 | 29 | 992.9 |
| 20260904001628 | 86 | 360 | 8.0 | 10.0 | 0.00 | 0.00 | 0.00 | 29 | 992.8 |
| 20260904001028 | 86 | 327 | 7.0 | 10.0 | 0.00 | 0.00 | 0.00 | 29 | 992.8 |
| 20260904000528 | 86 | 331 | 6.0 | 9.0 | 0.00 | 0.00 | 0.00 | 29 | 992.7 |
| 20260904000027 | 86 | 336 | 7.0 | 9.0 | 0.00 | 0.00 | 0.00 | 29 | 992.6 |
| 20260903235527 | 87 | 355 | 6.0 | 9.0 | 0.00 | 0.00 | 0.00 | 29 | 992.6 |
| 20260903235026 | 87 | 344 | 3.0 | 8.0 | 0.00 | 0.00 | 0.00 | 29 | 992.5 |
| 20260903234526 | 87 | 346 | 0.0 | 7.0 | 0.00 | 0.00 | 0.00 | 29 | 992.6 |
| 20260903234026 | 87 | 346 | 2.0 | 7.0 | 0.00 | 0.00 | 0.00 | 29 | 992.6 |
| 20260903233527 | 86 | 321 | 2.0 | 11.0 | 0.00 | 0.00 | 0.00 | 29 | 992.4 |
| 20260903233034 | 86 | 360 | 5.0 | 11.0 | 0.00 | 0.00 | 0.00 | 29 | 992.6 |
| 20260903232528 | 87 | 360 | 6.0 | 11.0 | 0.00 | 0.00 | 0.00 | 29 | 992.4 |
| 20260903232025 | 86 | 303 | 5.0 | 11.0 | 0.00 | 0.00 | 0.00 | 30 | 992.4 |
| 20260903231625 | 86 | 303 | 5.0 | 11.0 | 0.00 | 0.00 | 0.00 | 30 | 992.2 |
| 20260903231004 | 86 | 303 | 7.0 | 12.0 | 0.00 | 0.00 | 0.00 | 30 | 992.3 |
| 20260903230503 | 86 | 253 | 8.0 | 12.0 | 0.00 | 0.00 | 0.00 | 30 | 992.2 |
| 20260903230004 | 86 | 360 | 5.0 | 11.0 | 0.00 | 0.00 | 0.00 | 32 | 992.2 |
| 20260903225505 | 87 | 360 | 5.0 | 11.0 | 0.00 | 0.00 | 0.00 | 32 | 992.1 |
| 20260903225003 | 87 | 247 | 5.0 | 10.0 | 0.00 | 0.00 | 0.00 | 32 | 992.1 |
| 20260903224503 | 87 | 324 | 7.0 | 11.0 | 0.00 | 0.00 | 0.00 | 32 | 992.1 |
| 20260903224103 | 87 | 5 | 3.0 | 8.0 | 0.00 | 0.00 | 0.00 | 33 | 992.0 |
| 20260903223503 | 86 | 360 | 0.0 | 8.0 | 0.00 | 0.00 | 0.00 | 33 | 992.1 |
| 20260903223001 | 86 | 360 | 4.0 | 9.0 | 0.00 | 0.00 | 0.00 | 33 | 992.0 |
| 20260903222501 | 86 | 360 | 5.0 | 12.0 | 0.00 | 0.00 | 0.00 | 32 | 991.9 |
| 20260903222003 | 87 | 314 | 6.0 | 12.0 | 0.00 | 0.00 | 0.00 | 32 | 991.9 |
| 20260903221601 | 86 | 296 | 6.0 | 10.0 | 0.00 | 0.00 | 0.00 | 32 | 991.8 |
| 20260903221001 | 87 | 360 | 6.0 | 9.0 | 0.00 | 0.00 | 0.00 | 32 | 991.8 |
| 20260903220603 | 87 | 19 | 5.0 | 14.0 | 0.00 | 0.00 | 0.00 | 30 | 991.7 |
| 20260903220100 | 87 | 360 | 8.0 | 15.0 | 0.00 | 0.00 | 0.00 | 31 | 991.8 |
| 20260903215600 | 87 | 360 | 11.0 | 15.0 | 0.00 | 0.00 | 0.00 | 31 | 991.7 |
| 20260903215100 | 88 | 319 | 4.0 | 8.0 | 0.00 | 0.00 | 0.00 | 31 | 991.6 |
| 20260903214606 | 87 | 360 | 3.0 | 14.0 | 0.00 | 0.00 | 0.00 | 31 | 991.6 |
| 20260903214158 | 86 | 316 | 8.0 | 13.0 | 0.00 | 0.00 | 0.00 | 30 | 991.6 |
| 20260903213557 | 86 | 360 | 9.0 | 13.0 | 0.00 | 0.00 | 0.00 | 30 | 991.6 |
| 20260903213057 | 86 | 360 | 5.0 | 11.0 | 0.00 | 0.00 | 0.00 | 30 | 991.6 |
| 20260903212556 | 85 | 234 | 6.0 | 12.0 | 0.00 | 0.00 | 0.00 | 31 | 991.7 |
| 20260903212057 | 86 | 212 | 8.0 | 16.0 | 0.00 | 0.00 | 0.00 | 30 | 991.7 |
| 20260903211557 | 85 | 241 | 5.0 | 10.0 | 0.00 | 0.00 | 0.00 | 31 | 991.7 |
| 20260903211055 | 85 | 227 | 6.0 | 15.0 | 0.00 | 0.00 | 0.00 | 32 | 991.7 |
| 20260903210555 | 85 | 245 | 10.0 | 15.0 | 0.00 | 0.00 | 0.00 | 33 | 991.8 |
| 20260903210116 | 84 | 297 | 7.0 | 21.0 | 0.00 | 0.00 | 0.00 | 34 | 991.8 |
| 20260903205551 | 83 | 360 | 12.0 | 21.0 | 0.00 | 0.00 | 0.00 | 34 | 991.7 |
| 20260903205051 | 83 | 317 | 11.0 | 21.0 | 0.00 | 0.00 | 0.00 | 35 | 991.8 |
| 20260903204601 | 83 | 319 | 1.0 | 12.0 | 0.00 | 0.00 | 0.00 | 39 | 991.8 |
| 20260903204150 | 83 | 10 | 1.0 | 9.0 | 0.00 | 0.00 | 0.00 | 39 | 992.0 |
| 20260903203548 | 83 | 15 | 2.0 | 9.0 | 0.00 | 0.00 | 0.00 | 39 | 991.7 |
| 20260903203051 | 83 | 10 | 4.0 | 9.0 | 0.00 | 0.00 | 0.00 | 38 | 991.6 |
| 20260903202547 | 84 | 350 | 6.0 | 10.0 | 0.00 | 0.00 | 0.00 | 37 | 991.6 |
| 20260903202048 | 84 | 360 | 6.0 | 11.0 | 0.00 | 0.00 | 0.00 | 37 | 991.6 |
| 20260903201547 | 84 | 337 | 5.0 | 12.0 | 0.00 | 0.00 | 0.00 | 39 | 991.8 |
| 20260903201046 | 84 | 316 | 6.0 | 12.0 | 0.00 | 0.00 | 0.00 | 39 | 991.6 |
| 20260903200545 | 84 | 269 | 2.0 | 10.0 | 0.00 | 0.00 | 0.00 | 40 | 991.7 |
| 20260903200056 | 84 | 13 | 3.0 | 9.0 | 0.00 | 0.00 | 0.00 | 40 | 991.8 |
| 20260903195545 | 83 | 277 | 2.0 | 9.0 | 0.00 | 0.00 | 0.00 | 44 | 991.7 |
| 20260903195047 | 83 | 307 | 3.0 | 9.0 | 0.00 | 0.00 | 0.00 | 44 | 991.7 |
| 20260903194544 | 82 | 76 | 1.0 | 7.0 | 0.00 | 0.00 | 0.00 | 46 | 991.8 |
| 20260903194147 | 82 | 329 | 1.0 | 10.0 | 0.00 | 0.00 | 0.00 | 47 | 991.7 |
| 20260903193542 | 82 | 329 | 2.0 | 10.0 | 0.00 | 0.00 | 0.00 | 47 | 991.7 |
| 20260903193042 | 81 | 360 | 5.0 | 10.0 | 0.00 | 0.00 | 0.00 | 48 | 991.5 |
| 20260903192542 | 80 | 289 | 4.0 | 8.0 | 0.00 | 0.00 | 0.00 | 50 | 991.6 |
| 20260903192041 | 80 | 123 | 1.0 | 8.0 | 0.00 | 0.00 | 0.00 | 52 | 991.5 |
| 20260903191542 | 79 | 123 | 3.0 | 8.0 | 0.00 | 0.00 | 0.00 | 53 | 991.5 |
| 20260903191041 | 79 | 360 | 4.0 | 8.0 | 0.00 | 0.00 | 0.00 | 54 | 991.6 |
| 20260903190543 | 78 | 78 | 2.0 | 8.0 | 0.00 | 0.00 | 0.00 | 55 | 991.5 |
| 20260903190040 | 78 | 360 | 3.0 | 8.0 | 0.00 | 0.00 | 0.00 | 56 | 991.6 |
| 20260903185539 | 78 | 360 | 4.0 | 8.0 | 0.00 | 0.00 | 0.00 | 57 | 991.5 |
| 20260903185038 | 77 | 360 | 2.0 | 8.0 | 0.00 | 0.00 | 0.00 | 56 | 991.4 |
| 20260903184538 | 77 | 30 | 4.0 | 8.0 | 0.00 | 0.00 | 0.00 | 58 | 991.5 |
| 20260903184139 | 76 | 229 | 1.0 | 5.0 | 0.00 | 0.00 | 0.00 | 61 | 991.8 |
| 20260903183537 | 76 | 225 | 1.0 | 5.0 | 0.00 | 0.00 | 0.00 | 60 | 991.8 |
| 20260903183044 | 75 | 360 | 0.0 | 5.0 | 0.00 | 0.00 | 0.00 | 62 | 991.9 |
| 20260903182538 | 74 | 238 | 1.0 | 6.0 | 0.00 | 0.00 | 0.00 | 63 | 992.1 |
| 20260903182037 | 74 | 360 | 0.0 | 6.0 | 0.00 | 0.00 | 0.00 | 65 | 992.0 |
| 20260903181537 | 73 | 172 | 2.0 | 7.0 | 0.00 | 0.00 | 0.00 | 66 | 992.2 |
| 20260903181037 | 73 | 173 | 5.0 | 7.0 | 0.00 | 0.00 | 0.00 | 66 | 992.2 |
| 20260903180538 | 72 | 136 | 0.0 | 5.0 | 0.00 | 0.00 | 0.00 | 67 | 992.1 |
| 20260903180042 | 72 | 136 | 3.0 | 8.0 | 0.00 | 0.00 | 0.00 | 67 | 992.1 |
| 20260903175536 | 72 | 136 | 6.0 | 8.0 | 0.00 | 0.00 | 0.00 | 67 | 992.2 |
| 20260903175037 | 72 | 123 | 3.0 | 7.0 | 0.00 | 0.00 | 0.00 | 68 | 992.2 |
| 20260903174537 | 72 | 119 | 4.0 | 9.0 | 0.00 | 0.00 | 0.00 | 68 | 992.3 |
| 20260903174137 | 72 | 121 | 5.0 | 9.0 | 0.00 | 0.00 | 0.00 | 68 | 992.3 |
| 20260903173536 | 72 | 129 | 6.0 | 9.0 | 0.00 | 0.00 | 0.00 | 68 | 992.4 |
| 20260903173036 | 72 | 91 | 4.0 | 10.0 | 0.00 | 0.00 | 0.00 | 67 | 992.6 |
| 20260903172537 | 72 | 360 | 7.0 | 10.0 | 0.00 | 0.00 | 0.00 | 67 | 992.5 |
| 20260903172036 | 72 | 360 | 7.0 | 10.0 | 0.00 | 0.00 | 0.00 | 68 | 992.6 |
| 20260903171542 | 71 | 102 | 6.0 | 10.0 | 0.00 | 0.00 | 0.00 | 68 | 992.8 |
| 20260903171035 | 71 | 101 | 7.0 | 10.0 | 0.00 | 0.00 | 0.00 | 70 | 992.7 |
| 20260903170535 | 70 | 166 | 5.0 | 8.0 | 0.00 | 0.00 | 0.00 | 70 | 992.9 |
| 20260903170043 | 70 | 146 | 3.0 | 8.0 | 0.00 | 0.00 | 0.00 | 70 | 992.9 |
| 20260903165535 | 70 | 174 | 2.0 | 9.0 | 0.00 | 0.00 | 0.00 | 70 | 992.9 |
| 20260903165035 | 70 | 178 | 4.0 | 10.0 | 0.00 | 0.00 | 0.00 | 71 | 992.9 |
| 20260903164535 | 70 | 360 | 6.0 | 11.0 | 0.00 | 0.00 | 0.00 | 70 | 992.8 |
| 20260903164137 | 70 | 360 | 7.0 | 12.0 | 0.00 | 0.00 | 0.00 | 71 | 993.1 |
| 20260903163535 | 70 | 360 | 8.0 | 12.0 | 0.00 | 0.00 | 0.00 | 71 | 993.0 |
| 20260903163040 | 70 | 102 | 8.0 | 15.0 | 0.00 | 0.00 | 0.00 | 71 | 992.8 |
| 20260903162535 | 70 | 123 | 11.0 | 15.0 | 0.00 | 0.00 | 0.00 | 71 | 992.7 |
| 20260903162035 | 70 | 106 | 11.0 | 15.0 | 0.00 | 0.00 | 0.00 | 70 | 992.2 |
| 20260903161534 | 70 | 100 | 8.0 | 15.0 | 0.00 | 0.00 | 0.00 | 70 | 992.4 |
| 20260903161035 | 70 | 194 | 11.0 | 14.0 | 0.00 | 0.00 | 0.00 | 70 | 993.5 |
| 20260903160535 | 70 | 360 | 5.0 | 10.0 | 0.00 | 0.00 | 0.00 | 71 | 992.6 |
| 20260903160034 | 70 | 166 | 5.0 | 18.0 | 0.00 | 0.00 | 0.00 | 71 | 992.8 |
| 20260903155536 | 70 | 360 | 9.0 | 18.0 | 0.00 | 0.00 | 0.00 | 73 | 993.5 |
| 20260903155038 | 69 | 205 | 10.0 | 15.0 | 0.00 | 0.00 | 0.00 | 73 | 993.2 |
| 20260903154534 | 68 | 360 | 7.0 | 15.0 | 0.00 | 0.00 | 0.00 | 74 | 993.1 |
| 20260903154136 | 68 | 360 | 9.0 | 13.0 | 0.00 | 0.00 | 0.00 | 75 | 993.2 |
| 20260903153535 | 68 | 360 | 10.0 | 13.0 | 0.00 | 0.00 | 0.00 | 75 | 993.5 |
| 20260903153035 | 68 | 360 | 6.0 | 9.0 | 0.00 | 0.00 | 0.00 | 75 | 993.2 |
| 20260903152535 | 67 | 360 | 5.0 | 11.0 | 0.00 | 0.00 | 0.00 | 76 | 993.0 |
| 20260903152035 | 67 | 177 | 5.0 | 11.0 | 0.00 | 0.00 | 0.00 | 76 | 993.1 |
| 20260903151539 | 67 | 360 | 5.0 | 10.0 | 0.00 | 0.00 | 0.00 | 76 | 993.2 |
| 20260903151034 | 67 | 360 | 6.0 | 10.0 | 0.00 | 0.00 | 0.00 | 76 | 993.4 |
| 20260903150534 | 67 | 360 | 4.0 | 7.0 | 0.00 | 0.00 | 0.00 | 77 | 993.3 |
| 20260903150045 | 66 | 360 | 4.0 | 8.0 | 0.00 | 0.00 | 0.00 | 78 | 993.4 |
| 20260903145532 | 66 | 360 | 3.0 | 7.0 | 0.00 | 0.00 | 0.00 | 77 | 993.2 |
| 20260903145033 | 66 | 360 | 4.0 | 7.0 | 0.00 | 0.00 | 0.00 | 78 | 992.6 |
| 20260903144533 | 66 | 360 | 4.0 | 7.0 | 0.00 | 0.00 | 0.00 | 79 | 992.3 |